Location: Ladysmith
(45.4630°N, 91.1040°W)
Time: 12:12:17
(UTC-05:00)

Amateur Radio Satellites - All Passes

Search period start: 03 August 2015 11:42
Search period end: 04 August 2015 11:42
Location: Ladysmith, 45.4630°N, 91.1040°W

Satellite Date Start Highest point End Downlink Frequencies (MHz)
Time Altitude Azimuth
ESTCUBE 1 03 Aug 11:43:04 11:46:46 25° 93° (E) 11:50:31 437.505/2401.250
SEEDS 03 Aug 11:43:24 11:43:50 10° 300° (WNW) 11:44:04 437.485
POPSAT HIP 1 03 Aug 11:43:57 11:48:04 55° 260° (W) 11:52:14 437.405
Oscar 19 03 Aug 11:50:31 11:51:40 11° 55° (NE) 11:53:04 437.125/150
FUNcube-1 03 Aug 11:51:51 11:56:02 36° 290° (WNW) 12:00:12 145.935
QB50P2 03 Aug 11:52:25 11:56:27 43° 262° (W) 12:00:29 145.880/145.840
HUMSAT D 03 Aug 11:57:34 12:01:53 66° 286° (WNW) 12:06:10 437.325/437.525
UWE-3 03 Aug 12:01:05 12:04:50 24° 294° (WNW) 12:08:31 435.000/436.395/437.385
Oscar 11 03 Aug 12:01:14 12:04:23 19° 296° (WNW) 12:07:24 145.826/435.025
UKube-1 03 Aug 12:01:44 12:06:04 81° 103° (ESE) 12:10:24 .
UNISAT 6 03 Aug 12:03:04 12:05:56 16° 271° (W) 12:08:40 437.425
PCSat 03 Aug 12:06:02 12:08:17 12° 334° (NNW) 12:10:23 145.827
O/OREOS (USA 219) 03 Aug 12:12:15 12:16:08 27° 256° (WSW) 12:19:58 437.305
DUCHIFAT 1 03 Aug 12:14:39 12:18:16 27° 265° (W) 12:21:51 145.980
SO-50 03 Aug 12:16:46 12:18:49 12° 338° (NNW) 12:20:47 436.795
AISAT 03 Aug 12:19:17 12:23:44 84° 104° (ESE) 12:28:10 437.250
QB50P1 03 Aug 12:20:08 12:23:34 23° 267° (W) 12:26:57 145.935-145.965
NANOSAT C BR1 03 Aug 12:20:18 12:23:44 24° 267° (W) 12:27:07 145.865
CUBEBUG 2 03 Aug 12:23:00 12:25:23 14° 299° (WNW) 12:27:35 437.445
CUBEBUG 1 03 Aug 12:25:40 12:29:56 57° 100° (E) 12:34:12 437.445
DX 1 03 Aug 12:33:56 12:38:04 43° 290° (WNW) 12:42:10 434.975-435.025
Cosmos 2504 03 Aug 12:36:21 12:43:03 27° 63° (ENE) 12:50:09 435.465 / 435.565
50 SAT 03 Aug 12:41:03 12:44:51 43° 289° (WNW) 12:48:37 437.505
SPROUT 03 Aug 12:52:04 12:55:59 34° 96° (E) 12:59:56 437.525
TISAT 1 03 Aug 12:54:16 12:57:32 22° 93° (E) 13:00:53 437.305
YUBILEINY 03 Aug 12:55:15 13:03:30 44° 272° (W) 13:11:36 435.215
VELOX 1 03 Aug 12:57:47 13:01:58 41° 290° (WNW) 13:06:05 145.980
Gurwin Techsat 1B 03 Aug 13:07:18 13:10:39 18° 60° (ENE) 13:14:11 435.225
AIST 1 03 Aug 13:11:04 13:14:55 30° 287° (WNW) 13:18:43
ITAMSAT 1 03 Aug 13:14:36 13:17:58 18° 60° (ENE) 13:21:29 435.822/435.867
ESTCUBE 1 03 Aug 13:19:36 13:23:44 35° 291° (WNW) 13:27:47 437.505/2401.250
Oscar 19 03 Aug 13:25:06 13:30:10 69° 73° (ENE) 13:35:18 437.125/150
JAS-2 03 Aug 13:26:50 13:30:19 15° 50° (NE) 13:34:17 435.910
Cosmos 2491 03 Aug 13:31:53 13:40:29 57° 285° (WNW) 13:49:04 435.465 / 435.565
UKube-1 03 Aug 13:39:48 13:41:38 12° 300° (WNW) 13:43:17 .
ITUPSAT 1 03 Aug 13:48:24 13:51:04 15° 88° (E) 13:53:55 437.325
AISAT 03 Aug 13:57:53 13:59:44 12° 300° (WNW) 14:01:23 437.250
CUBEBUG 1 03 Aug 14:03:09 14:05:54 16° 297° (WNW) 14:08:32 437.445
AO-7 03 Aug 14:07:29 14:13:38 24° 50° (NE) 14:20:02 29.400- 29.500
DANDE 03 Aug 14:11:42 14:13:08 12° 69° (ENE) 14:14:56 436.750
CUSAT 1 03 Aug 14:11:50 14:15:08 22° 72° (ENE) 14:19:16 437.405
Cosmos 2504 03 Aug 14:27:48 14:36:14 78° 265° (W) 14:44:51 435.465 / 435.565
SPROUT 03 Aug 14:28:23 14:31:56 25° 293° (WNW) 14:35:25 437.525
TISAT 1 03 Aug 14:29:32 14:33:25 36° 290° (WNW) 14:37:17 437.305
BEESAT 03 Aug 14:41:28 14:46:08 49° 100° (E) 14:50:45 436.000
Gurwin Techsat 1B 03 Aug 14:44:47 14:50:06 76° 257° (WSW) 14:55:27 435.225
ITAMSAT 1 03 Aug 14:51:45 14:56:58 72° 257° (WSW) 15:02:12 435.822/435.867
KKS-1 03 Aug 14:53:31 14:54:51 11° 87° (E) 14:56:27 437.445
HORYU 2 03 Aug 14:59:24 15:02:39 21° 64° (ENE) 15:06:03 437.375
SWISSCUBE 03 Aug 15:02:22 15:07:12 85° 107° (ESE) 15:11:57 437.505
Oscar 19 03 Aug 15:06:52 15:10:08 16° 272° (W) 15:13:11 437.125/150
JAS-2 03 Aug 15:07:49 15:14:02 68° 71° (ENE) 15:21:10 435.910
ITUPSAT 1 03 Aug 15:24:44 15:29:30 66° 287° (WNW) 15:34:13 437.325
Cosmos 2491 03 Aug 15:36:00 15:39:55 13° 312° (NW) 15:43:19 435.465 / 435.565
PCSat 03 Aug 15:38:24 15:40:36 12° 26° (NNE) 15:42:57 145.827
GONETS M04 03 Aug 15:40:42 15:46:58 22° 58° (ENE) 15:53:33
SO-50 03 Aug 15:41:30 15:44:23 15° 27° (NNE) 15:47:21 436.795
DANDE 03 Aug 15:52:31 15:56:20 65° 261° (W) 16:01:28 436.750
CUSAT 1 03 Aug 15:53:34 15:57:41 43° 262° (W) 16:03:02 437.405
STARS 03 Aug 15:54:25 15:58:17 29° 95° (E) 16:02:11 437.465
AO-7 03 Aug 15:57:06 16:05:29 87° 68° (ENE) 16:13:55 29.400- 29.500
BEESAT 03 Aug 16:20:01 16:23:40 22° 297° (WNW) 16:27:13 436.000
Cosmos 2504 03 Aug 16:22:07 16:27:19 17° 283° (WNW) 16:32:05 435.465 / 435.565
KKS-1 03 Aug 16:27:39 16:32:08 78° 284° (WNW) 16:36:35 437.445
HORYU 2 03 Aug 16:34:43 16:39:00 46° 261° (W) 16:43:21 437.375
SWISSCUBE 03 Aug 16:42:00 16:44:25 14° 301° (WNW) 16:46:39 437.505
CUTE-I 03 Aug 16:42:23 16:44:21 12° 56° (NE) 16:46:34 437.470
JAS-2 03 Aug 16:54:53 16:59:56 23° 274° (W) 17:05:15 435.910
PCSat 03 Aug 17:20:19 17:25:32 45° 50° (NE) 17:30:43 145.827
SO-50 03 Aug 17:21:06 17:26:02 57° 49° (NE) 17:30:51 436.795
VERMONT LUNAR 03 Aug 17:21:17 17:22:41 13° 155° (SSE) 17:24:10 437.305
Cubesat XI-IV 03 Aug 17:24:23 17:28:45 27° 64° (ENE) 17:33:14 437.490
Cosmos 2499 03 Aug 17:25:34 17:32:21 25° 61° (ENE) 17:39:31 435.465 / 435.565
STARS 03 Aug 17:30:49 17:34:42 30° 293° (WNW) 17:38:32 437.465
GONETS M04 03 Aug 17:36:29 17:45:16 90° 93° (E) 17:54:03
MOZHAYETS 4 03 Aug 17:37:44 17:42:24 76° 103° (ESE) 17:47:00
AO-7 03 Aug 17:53:13 17:59:28 22° 272° (W) 18:05:22 29.400- 29.500
CUBESAT XI-V 03 Aug 18:04:03 18:06:11 13° 87° (E) 18:08:32 437.345
KKS-1 03 Aug 18:07:35 18:08:04 10° 302° (WNW) 18:08:18 437.445
CUTE-I 03 Aug 18:18:17 18:23:36 73° 74° (ENE) 18:28:59 437.470
HO-68 03 Aug 18:37:25 18:41:16 16° 49° (NE) 18:45:24 435.675
VERMONT LUNAR 03 Aug 18:56:03 18:58:51 29° 171° (S) 19:01:40 437.305
GOMX 1 03 Aug 18:58:46 19:00:33 13° 62° (ENE) 19:02:28 467.674
BRITE-PL 03 Aug 19:00:37 19:03:52 22° 67° (ENE) 19:07:09 437.365/2234.400
SO-50 03 Aug 19:02:23 19:06:14 22° 247° (WSW) 19:09:54 436.795
Cubesat XI-IV 03 Aug 19:03:28 19:08:38 47° 261° (W) 19:13:50 437.490
PCSat 03 Aug 19:04:03 19:08:49 32° 249° (WSW) 19:13:31 145.827
MOZHAYETS 4 03 Aug 19:16:31 19:19:04 14° 299° (WNW) 19:21:25
Cosmos 2499 03 Aug 19:17:54 19:26:43 84° 263° (W) 19:35:36 435.465 / 435.565
SEEDS 03 Aug 19:26:39 19:27:16 10° 60° (ENE) 19:28:05 437.485
CUTE 1.7 + AOD 2 03 Aug 19:32:16 19:34:36 15° 63° (ENE) 19:37:05 437.475
PRISM 03 Aug 19:32:41 19:35:54 22° 93° (E) 19:39:09 437.425
GONETS M04 03 Aug 19:35:02 19:41:04 20° 282° (WNW) 19:46:42
STRAND 1 03 Aug 19:39:17 19:43:57 36° 96° (E) 19:48:38 437.568
CUBESAT XI-V 03 Aug 19:39:36 19:44:13 70° 285° (WNW) 19:48:46 437.345
CANX-2 03 Aug 19:40:19 19:43:20 19° 65° (ENE) 19:46:28 2200.000
AAUSAT CUBESAT 2 03 Aug 19:45:21 19:46:24 11° 61° (ENE) 19:47:41 437.432
PHONESAT 2.4 03 Aug 19:55:58 19:58:43 22° 161° (SSE) 20:01:31 2401.200-2431.200
CINEMA 3 03 Aug 19:58:56 20:01:19 15° 62° (ENE) 20:03:53 145.822/145.860
CUTE-I 03 Aug 20:00:56 20:04:20 16° 272° (W) 20:07:32 437.470
DOVE 4 03 Aug 20:08:51 20:12:40 39° 71° (ENE) 20:16:36 437.250
CUBEBUG 2 03 Aug 20:12:36 20:13:13 10° 59° (ENE) 20:14:04 437.445
HO-68 03 Aug 20:20:47 20:27:50 67° 69° (ENE) 20:34:58 435.675
VERMONT LUNAR 03 Aug 20:32:19 20:35:11 30° 187° (S) 20:38:02 437.305
GOMX 1 03 Aug 20:34:05 20:38:15 67° 259° (WSW) 20:42:23 467.674
BRITE-PL 03 Aug 20:38:20 20:42:19 35° 263° (W) 20:46:09 437.365/2234.400
COMPASS 1 03 Aug 20:38:35 20:42:34 43° 71° (ENE) 20:46:36 437.405
DELFI C3 03 Aug 20:45:10 20:47:17 14° 63° (ENE) 20:49:33 145.870
ZACube-1 03 Aug 20:54:32 20:57:15 17° 63° (ENE) 21:00:09 437.345
ISS 03 Aug 20:58:07 21:01:18 56° 146° (SSE) 21:04:31 145.825
SEEDS 03 Aug 20:58:09 21:02:24 87° 78° (ENE) 21:06:43 437.485
RS-15 03 Aug 20:58:36 21:08:40 47° 112° (ESE) 21:19:12 29.354- 29.394
CUTE 1.7 + AOD 2 03 Aug 21:05:48 21:10:03 63° 259° (W) 21:14:20 437.475
PRISM 03 Aug 21:07:41 21:11:26 34° 291° (WNW) 21:15:06 437.425
Cosmos 2499 03 Aug 21:12:51 21:18:46 20° 282° (WNW) 21:24:18 435.465 / 435.565
FUNcube-1 03 Aug 21:14:00 21:17:29 25° 67° (ENE) 21:21:05 145.935
CANX-2 03 Aug 21:14:50 21:18:57 45° 262° (W) 21:23:07 2200.000
AAUSAT CUBESAT 2 03 Aug 21:17:11 21:21:24 86° 257° (WSW) 21:25:39 437.432
HUMSAT D 03 Aug 21:18:12 21:20:03 13° 61° (ENE) 21:22:05 437.325/437.525
STRAND 1 03 Aug 21:18:36 21:23:06 32° 294° (WNW) 21:27:33 437.568
Oscar 11 03 Aug 21:20:58 21:25:08 48° 72° (ENE) 21:29:22 145.826/435.025
UWE-3 03 Aug 21:23:33 21:27:30 41° 71° (ENE) 21:31:37 435.000/436.395/437.385
UKube-1 03 Aug 21:26:03 21:27:12 11° 59° (ENE) 21:28:33 .
PHONESAT 2.4 03 Aug 21:32:58 21:36:14 36° 178° (S) 21:39:30 2401.200-2431.200
CINEMA 3 03 Aug 21:34:00 21:38:05 57° 260° (W) 21:42:20 145.822/145.860
Cosmos 2491 03 Aug 21:43:35 21:49:25 20° 56° (NE) 21:55:35 435.465 / 435.565
CUBEBUG 2 03 Aug 21:45:00 21:49:13 88° 73° (ENE) 21:53:35 437.445
AISAT 03 Aug 21:45:43 21:47:22 12° 60° (ENE) 21:49:14 437.250
DOVE 4 03 Aug 21:47:40 21:50:42 19° 269° (W) 21:53:39 437.250
M-CUBED/EXP-1 PRIME 03 Aug 21:52:09 21:55:05 16° 93° (E) 21:58:07 437.505
50 SAT 03 Aug 21:54:12 21:56:07 14° 63° (ENE) 21:58:12 437.505
DX 1 03 Aug 21:56:12 21:59:37 24° 65° (ENE) 22:03:07 434.975-435.025
VERMONT LUNAR 03 Aug 22:09:30 22:11:22 15° 203° (SSW) 22:13:11 437.305
HO-68 03 Aug 22:10:22 22:16:13 26° 269° (W) 22:21:53 435.675
COMPASS 1 03 Aug 22:15:24 22:18:28 19° 269° (W) 22:21:26 437.405
UNISAT 6 03 Aug 22:16:52 22:17:37 10° 85° (E) 22:18:40 437.425
DELFI C3 03 Aug 22:17:54 22:21:55 59° 259° (W) 22:25:59 145.870
AUBIESAT-1 03 Aug 22:17:58 22:21:49 25° 97° (E) 22:25:38 437.475
BEESAT 2 03 Aug 22:18:17 22:18:59 10° 110° (ESE) 22:19:55 435.950
VELOX 1 03 Aug 22:21:36 22:25:11 25° 66° (ENE) 22:28:51 145.980
ZACube-1 03 Aug 22:29:07 22:33:14 52° 261° (W) 22:37:29 437.345
ISS 03 Aug 22:34:49 22:37:53 35° 345° (NNW) 22:40:55 145.825
ESTCUBE 1 03 Aug 22:44:43 22:48:41 31° 68° (ENE) 22:52:42 437.505/2401.250
FUNcube-1 03 Aug 22:49:52 22:53:41 32° 265° (W) 22:57:35 145.935
BEESAT 3 03 Aug 22:50:39 22:54:11 29° 116° (ESE) 22:57:47 437.485
HUMSAT D 03 Aug 22:51:06 22:55:15 71° 257° (WSW) 22:59:30 437.325/437.525
TIGRISAT 03 Aug 22:56:23 23:00:17 26° 93° (E) 23:04:16 435.000
UKube-1 03 Aug 22:58:23 23:02:42 90° 254° (WSW) 23:07:03 .
Oscar 11 03 Aug 22:58:38 23:01:38 17° 270° (W) 23:04:30 145.826/435.025
ANTELSAT 03 Aug 22:59:25 23:03:29 29° 94° (E) 23:07:35 437.575/2403.000
UWE-3 03 Aug 23:01:07 23:04:17 20° 270° (W) 23:07:24 435.000/436.395/437.385
RS-15 03 Aug 23:10:01 23:20:52 60° 317° (NW) 23:32:11 29.354- 29.394
PHONESAT 2.4 03 Aug 23:10:46 23:13:47 27° 195° (SSW) 23:16:47 2401.200-2431.200
POLYITAN 1 03 Aug 23:12:16 23:14:33 14° 89° (E) 23:17:00 437.675
AIST 1 03 Aug 23:15:10 23:19:28 83° 80° (E) 23:23:43
AISAT 03 Aug 23:18:58 23:23:22 83° 256° (WSW) 23:27:48 437.250
CUBEBUG 1 03 Aug 23:23:42 23:27:59 62° 73° (ENE) 23:32:18 437.445
M-CUBED/EXP-1 PRIME 03 Aug 23:25:32 23:30:20 66° 292° (WNW) 23:34:58 437.505
50 SAT 03 Aug 23:26:25 23:30:16 58° 260° (W) 23:34:10 437.505
POPSAT HIP 1 03 Aug 23:27:26 23:30:33 20° 92° (E) 23:33:48 437.405
DX 1 03 Aug 23:31:40 23:35:42 37° 263° (W) 23:39:44 434.975-435.025
QB50P2 03 Aug 23:35:37 23:39:08 25° 94° (E) 23:42:44 145.880/145.840
Cosmos 2491 03 Aug 23:39:11 23:47:57 83° 81° (E) 23:56:41 435.465 / 435.565
SPROUT 03 Aug 23:48:18 23:52:09 35° 69° (ENE) 23:56:04 437.525
TISAT 1 03 Aug 23:48:40 23:51:54 23° 66° (ENE) 23:55:13 437.305
UNISAT 6 03 Aug 23:50:25 23:55:09 89° 95° (E) 23:59:53 437.425
AUBIESAT-1 03 Aug 23:52:09 23:56:40 43° 296° (WNW) 00:01:01 437.475
BEESAT 2 03 Aug 23:52:21 23:56:28 86° 305° (NW) 00:00:37 435.950
DUCHIFAT 1 03 Aug 23:56:20 00:00:18 38° 97° (E) 00:04:19 145.980
VELOX 1 03 Aug 23:57:34 00:01:37 35° 263° (W) 00:05:39 145.980
NANOSAT C BR1 04 Aug 00:01:53 00:05:59 45° 99° (E) 00:10:05 145.865
QB50P1 04 Aug 00:01:55 00:06:02 46° 99° (E) 00:10:10 145.935-145.965
YUBILEINY 04 Aug 00:01:56 00:10:05 48° 89° (E) 00:18:23 435.215
AIST 2 04 Aug 00:08:08 00:11:57 34° 117° (ESE) 00:15:50 435.215
ISS 04 Aug 00:12:01 00:14:52 27° 5° (N) 00:17:43 145.825
BEESAT 04 Aug 00:16:46 00:17:36 11° 57° (ENE) 00:18:40 436.000
ESTCUBE 1 04 Aug 00:21:32 00:25:33 29° 265° (W) 00:29:30 437.505/2401.250
BEESAT 3 04 Aug 00:28:19 00:32:04 33° 315° (NW) 00:35:49 437.485
TIGRISAT 04 Aug 00:32:47 00:37:08 38° 291° (WNW) 00:41:28 435.000
SWISSCUBE 04 Aug 00:35:22 00:38:22 17° 61° (ENE) 00:41:31 437.505
ANTELSAT 04 Aug 00:36:00 00:40:17 35° 291° (WNW) 00:44:31 437.575/2403.000
POLYITAN 1 04 Aug 00:46:39 00:50:53 58° 287° (WNW) 00:55:05 437.675
O/OREOS (USA 219) 04 Aug 00:47:37 00:51:16 26° 104° (ESE) 00:55:02 437.305
BUGSAT 1 04 Aug 00:50:01 00:54:08 85° 281° (WNW) 00:58:14 437.445
ITUPSAT 1 04 Aug 00:56:59 01:00:45 24° 64° (ENE) 01:04:37 437.325
CUBEBUG 1 04 Aug 01:02:30 01:04:49 14° 272° (W) 01:06:56 437.445
POPSAT HIP 1 04 Aug 01:02:36 01:06:38 40° 289° (WNW) 01:10:38 437.405
M-CUBED/EXP-1 PRIME 04 Aug 01:02:46 01:04:15 11° 309° (NW) 01:05:32 437.505
QB50P2 04 Aug 01:11:14 01:15:05 32° 291° (WNW) 01:18:53 145.880/145.840
Cosmos 2504 04 Aug 01:13:33 01:16:53 14° 75° (ENE) 01:20:47 435.465 / 435.565
TISAT 1 04 Aug 01:23:39 01:27:30 35° 263° (W) 01:31:22 437.305
SPROUT 04 Aug 01:24:52 01:28:20 23° 267° (W) 01:31:44 437.525
RS-15 04 Aug 01:26:38 01:36:16 31° 348° (NNW) 01:46:11 29.354- 29.394
UNISAT 6 04 Aug 01:29:09 01:31:18 13° 300° (WNW) 01:33:17 437.425
DUCHIFAT 1 04 Aug 01:32:37 01:35:55 22° 294° (WNW) 01:39:09 145.980
BEESAT 2 04 Aug 01:32:37 01:35:09 15° 326° (NW) 01:37:38 435.950
Oscar 19 04 Aug 01:35:10 01:38:56 21° 90° (E) 01:42:51 437.125/150
Cosmos 2491 04 Aug 01:37:28 01:43:54 23° 280° (W) 01:49:58 435.465 / 435.565
NANOSAT C BR1 04 Aug 01:38:27 01:41:31 19° 295° (WNW) 01:44:30 145.865
QB50P1 04 Aug 01:38:33 01:41:36 19° 296° (WNW) 01:44:34 145.935-145.965
AIST 2 04 Aug 01:46:40 01:50:33 32° 316° (NW) 01:54:23 435.215
ISS 04 Aug 01:48:29 01:51:43 60° 24° (NNE) 01:54:57 145.825
BEESAT 04 Aug 01:49:53 01:54:40 73° 74° (ENE) 01:59:28 436.000
KKS-1 04 Aug 01:53:32 01:56:00 15° 62° (ENE) 01:58:38 437.445
YUBILEINY 04 Aug 01:58:54 02:07:05 42° 291° (WNW) 02:15:17 435.215
SWISSCUBE 04 Aug 02:10:59 02:15:46 66° 259° (W) 02:20:33 437.505
JAS-2 04 Aug 02:18:46 02:19:54 11° 76° (ENE) 02:21:42 435.910
O/OREOS (USA 219) 04 Aug 02:26:24 02:30:34 36° 303° (WNW) 02:34:45 437.305
ITUPSAT 1 04 Aug 02:33:48 02:38:25 45° 262° (W) 02:43:02 437.325
STARS 04 Aug 02:53:21 02:57:17 34° 68° (ENE) 03:01:17 437.465
Gurwin Techsat 1B 04 Aug 02:58:56 03:03:49 37° 96° (E) 03:08:44 435.225
Cosmos 2504 04 Aug 03:00:32 03:07:44 77° 96° (E) 03:15:33 435.465 / 435.565
ITAMSAT 1 04 Aug 03:02:37 03:07:18 34° 96° (E) 03:12:00 435.822/435.867
MOZHAYETS 4 04 Aug 03:07:50 03:09:35 12° 59° (ENE) 03:11:31
Oscar 19 04 Aug 03:13:37 03:18:42 56° 289° (WNW) 03:23:45 437.125/150
ISS 04 Aug 03:25:17 03:27:57 23° 222° (SW) 03:30:34 145.825
KKS-1 04 Aug 03:27:47 03:32:11 65° 259° (WSW) 03:36:37 437.445
BEESAT 04 Aug 03:30:33 03:33:07 14° 272° (W) 03:35:28 436.000
RS-15 04 Aug 03:42:49 03:53:00 35° 21° (NNE) 04:03:42 29.354- 29.394
AO-7 04 Aug 03:57:08 04:03:35 25° 90° (E) 04:10:16 29.400- 29.500
JAS-2 04 Aug 03:59:08 04:06:51 56° 98° (E) 04:14:25 435.910
HORYU 2 04 Aug 04:23:47 04:27:41 28° 95° (E) 04:31:36 437.375
STARS 04 Aug 04:30:10 04:33:48 25° 266° (W) 04:37:24 437.465
Gurwin Techsat 1B 04 Aug 04:39:02 04:43:46 33° 294° (WNW) 04:48:26 435.225
MOZHAYETS 4 04 Aug 04:41:30 04:46:09 89° 72° (ENE) 04:50:50
ITAMSAT 1 04 Aug 04:42:08 04:46:48 34° 294° (WNW) 04:51:24 435.822/435.867
GONETS M04 04 Aug 04:46:41 04:52:33 22° 79° (E) 04:58:47
Cosmos 2504 04 Aug 04:55:17 05:01:02 23° 300° (WNW) 05:06:53 435.465 / 435.565
CUSAT 1 04 Aug 05:05:44 05:07:57 23° 287° (WNW) 05:10:07 437.405
DANDE 04 Aug 05:08:43 05:11:30 40° 284° (WNW) 05:14:00 436.750
CUBESAT XI-V 04 Aug 05:09:22 05:12:29 19° 63° (ENE) 05:15:44 437.345
STRAND 1 04 Aug 05:23:13 05:23:53 10° 55° (NE) 05:24:49 437.568
JAS-2 04 Aug 05:44:32 05:51:37 38° 297° (WNW) 05:58:30 435.910
AO-7 04 Aug 05:48:58 05:57:20 78° 291° (WNW) 06:05:36 29.400- 29.500
RS-15 04 Aug 05:55:59 06:07:44 76° 50° (NE) 06:19:58 29.354- 29.394
HORYU 2 04 Aug 06:00:17 06:04:20 32° 292° (WNW) 06:08:18 437.375
Cosmos 2499 04 Aug 06:08:55 06:12:28 14° 75° (ENE) 06:16:36 435.465 / 435.565
MOZHAYETS 4 04 Aug 06:23:15 06:24:09 10° 275° (W) 06:24:45
PRISM 04 Aug 06:24:48 06:28:06 24° 66° (ENE) 06:31:29 437.425
BEESAT 2 04 Aug 06:32:12 06:35:04 18° 37° (NE) 06:37:58 435.950
CUTE-I 04 Aug 06:33:47 06:37:59 24° 92° (E) 06:42:18 437.470
GONETS M04 04 Aug 06:39:41 06:48:25 86° 280° (W) 06:57:10
CUBESAT XI-V 04 Aug 06:44:57 06:49:33 56° 260° (W) 06:54:09 437.345
AIST 2 04 Aug 06:50:58 06:51:52 11° 26° (NNE) 06:52:53 435.215
STRAND 1 04 Aug 06:57:08 07:02:12 65° 73° (ENE) 07:07:19 437.568
BEESAT 3 04 Aug 07:06:39 07:10:28 38° 47° (NE) 07:14:15 437.485
Cubesat XI-IV 04 Aug 07:18:13 07:23:29 59° 100° (E) 07:28:44 437.490
SO-50 04 Aug 07:41:53 07:42:18 10° 107° (ESE) 07:43:02 436.795
AO-7 04 Aug 07:43:03 07:49:00 22° 312° (NW) 07:54:40 29.400- 29.500
Cosmos 2499 04 Aug 07:56:41 08:04:10 76° 95° (E) 08:12:21 435.465 / 435.565
PRISM 04 Aug 07:59:33 08:03:24 34° 263° (W) 08:07:13 437.425
PCSat 04 Aug 08:05:11 08:09:23 24° 109° (ESE) 08:13:45 145.827
DOVE 4 04 Aug 08:07:55 08:08:06 10° 85° (E) 08:08:36 437.250
RS-15 04 Aug 08:09:08 08:19:30 36° 252° (WSW) 08:29:52 29.354- 29.394
BEESAT 2 04 Aug 08:09:30 08:13:35 70° 237° (WSW) 08:17:34 435.950
CUTE-I 04 Aug 08:13:15 08:18:23 49° 291° (WNW) 08:23:28 437.470
AIST 2 04 Aug 08:27:28 08:31:32 45° 48° (NE) 08:35:32 435.215
GOMX 1 04 Aug 08:32:52 08:36:52 29° 95° (E) 08:41:08 467.674
STRAND 1 04 Aug 08:38:29 08:41:57 17° 271° (W) 08:45:13 437.568
BRITE-PL 04 Aug 08:39:18 08:43:40 53° 100° (E) 08:48:21 437.365/2234.400
GONETS M04 04 Aug 08:40:31 08:46:51 21° 303° (WNW) 08:52:50
M-CUBED/EXP-1 PRIME 04 Aug 08:41:24 08:44:59 27° 60° (ENE) 08:48:52 437.505
SEEDS 04 Aug 08:42:02 08:43:52 13° 87° (E) 08:45:54 437.485
BEESAT 3 04 Aug 08:44:55 08:48:14 24° 245° (WSW) 08:51:27 437.485
CUTE 1.7 + AOD 2 04 Aug 08:49:35 08:52:39 19° 91° (E) 08:55:48 437.475
CANX-2 04 Aug 08:58:07 09:01:44 26° 93° (E) 09:05:22 2200.000
Cubesat XI-IV 04 Aug 08:59:09 09:03:13 22° 298° (WNW) 09:07:10 437.490
AAUSAT CUBESAT 2 04 Aug 08:59:33 09:01:28 13° 88° (E) 09:03:34 437.432
AUBIESAT-1 04 Aug 09:06:52 09:10:51 41° 64° (ENE) 09:15:08 437.475
O/OREOS (USA 219) 04 Aug 09:17:03 09:18:40 12° 43° (NE) 09:20:28 437.305
SO-50 04 Aug 09:17:18 09:22:05 76° 123° (ESE) 09:27:00 436.795
UNISAT 6 04 Aug 09:17:46 09:19:40 13° 60° (ENE) 09:21:45 437.425
CINEMA 3 04 Aug 09:26:08 09:30:15 29° 94° (E) 09:34:33 145.822/145.860
HO-68 04 Aug 09:33:30 09:40:35 57° 101° (E) 09:47:39 435.675
CUBEBUG 2 04 Aug 09:34:30 09:37:33 17° 89° (E) 09:40:46 437.445
DOVE 4 04 Aug 09:41:52 09:46:33 85° 101° (E) 09:51:32 437.250
PCSat 04 Aug 09:47:09 09:52:29 56° 307° (NW) 09:57:51 145.827
Cosmos 2499 04 Aug 09:52:14 09:58:26 25° 300° (WNW) 10:04:47 435.465 / 435.565
COMPASS 1 04 Aug 09:55:00 09:59:13 60° 101° (E) 10:03:22 437.405
DELFI C3 04 Aug 09:55:47 09:58:13 16° 90° (E) 10:00:46 145.870
TIGRISAT 04 Aug 09:57:27 10:01:10 28° 67° (ENE) 10:05:03 435.000
ANTELSAT 04 Aug 10:00:37 10:04:30 31° 68° (ENE) 10:08:31 437.575/2403.000
AIST 2 04 Aug 10:06:36 10:09:51 21° 246° (WSW) 10:12:57 435.215
POLYITAN 1 04 Aug 10:07:47 10:10:11 15° 63° (ENE) 10:12:45 437.675
YUBILEINY 04 Aug 10:09:11 10:16:19 27° 62° (ENE) 10:23:40 435.215
GOMX 1 04 Aug 10:10:55 10:15:02 33° 290° (WNW) 10:19:21 467.674
ZACube-1 04 Aug 10:15:30 10:19:20 26° 94° (E) 10:23:14 437.345
M-CUBED/EXP-1 PRIME 04 Aug 10:15:47 10:19:38 35° 259° (W) 10:23:46 437.505
SEEDS 04 Aug 10:15:55 10:20:10 64° 286° (WNW) 10:24:22 437.485
BRITE-PL 04 Aug 10:18:51 10:21:57 18° 295° (WNW) 10:25:02 437.365/2234.400
POPSAT HIP 1 04 Aug 10:22:35 10:25:40 21° 65° (ENE) 10:28:53 437.405
CUTE 1.7 + AOD 2 04 Aug 10:24:41 10:28:47 42° 289° (WNW) 10:32:49 437.475
QB50P2 04 Aug 10:30:46 10:34:14 26° 67° (ENE) 10:37:45 145.880/145.840
AAUSAT CUBESAT 2 04 Aug 10:33:22 10:37:33 61° 286° (WNW) 10:41:40 437.432
HUMSAT D 04 Aug 10:33:49 10:36:34 17° 90° (E) 10:39:27 437.325/437.525
CANX-2 04 Aug 10:33:51 10:37:41 32° 291° (WNW) 10:41:28 2200.000
FUNcube-1 04 Aug 10:35:15 10:39:33 40° 97° (E) 10:43:53 145.935
Oscar 11 04 Aug 10:41:54 10:46:17 74° 102° (ESE) 10:50:38 145.826/435.025
AUBIESAT-1 04 Aug 10:42:22 10:45:45 22° 264° (W) 10:49:14 437.475
UKube-1 04 Aug 10:45:25 10:47:15 13° 88° (E) 10:49:18 .
UWE-3 04 Aug 10:46:53 10:51:31 70° 101° (ESE) 10:56:11 435.000/436.395/437.385
Cosmos 2491 04 Aug 10:50:02 10:55:28 19° 78° (ENE) 11:01:20 435.465 / 435.565
DUCHIFAT 1 04 Aug 10:50:43 10:54:34 38° 70° (ENE) 10:58:29 145.980
UNISAT 6 04 Aug 10:51:26 10:55:49 81° 258° (WSW) 11:00:22 437.425
O/OREOS (USA 219) 04 Aug 10:54:25 10:59:01 74° 64° (ENE) 11:03:36 437.305
NANOSAT C BR1 04 Aug 10:56:23 11:00:21 44° 72° (ENE) 11:04:23 145.865
QB50P1 04 Aug 10:56:38 11:00:38 45° 71° (ENE) 11:04:41 145.935-145.965
SO-50 04 Aug 10:59:19 11:03:11 22° 325° (NW) 11:07:03 436.795
50 SAT 04 Aug 11:00:52 11:02:53 14° 89° (E) 11:05:05 437.505
CINEMA 3 04 Aug 11:03:11 11:07:28 35° 291° (WNW) 11:11:52 145.822/145.860
AISAT 04 Aug 11:08:31 11:11:10 16° 90° (E) 11:13:59 437.250
CUBEBUG 2 04 Aug 11:10:01 11:14:36 57° 287° (WNW) 11:19:15 437.445
DX 1 04 Aug 11:17:36 11:21:26 30° 96° (E) 11:25:17 434.975-435.025
DOVE 4 04 Aug 11:21:32 11:23:49 13° 298° (WNW) 11:25:57 437.250
HO-68 04 Aug 11:21:44 11:28:01 33° 300° (WNW) 11:34:11 435.675
DELFI C3 04 Aug 11:29:40 11:33:35 47° 288° (WNW) 11:37:28 145.870
COMPASS 1 04 Aug 11:31:58 11:34:26 15° 297° (WNW) 11:36:45 437.405
TIGRISAT 04 Aug 11:33:56 11:37:52 31° 265° (W) 11:41:51 435.000
PCSat 04 Aug 11:34:09 11:37:11 15° 330° (NNW) 11:40:05 145.827
